[[{"header":{"parameterUnit":"m.s-1","parameterCategory":1,"la1":30.2991,"la2":30.254,"lo1":-89.0895,"lo2":-89.0444,"dy":0.0017,"dx":0.0017,"nx":28,"ny":28,"refTime":"2024-04-28T03:00:00:Z","depth":0,"parameterNumber":2,"parameterNumberName":"U-component_of_WINDS"},"data":[0,0,0,0,0,0,0,0,0,0,0,0,0,0,0,0,0,0,0,0,0,0,0,0,0,0,0,0,0,0,0,0,0,0,0,0,0,0,0,0,0,0,0,0,0,0,0,0,0,0,0,0,0,0,0,0,0,0,-4.3042,-4.3042,0,-4.3089,-4.3089,-4.309,-4.3075,-4.3074,-4.3073,-4.3072,-4.312,-4.3122,-4.3124,0,0,0,0,0,0,0,0,0,0,0,0,0,-4.2941,-4.2943,-4.3042,-4.3042,-4.3043,-4.3089,-4.3089,-4.309,-4.3075,-4.3074,-4.3073,-4.3072,-4.3119,-4.3122,-4.3124,0,0,0,0,0,0,0,0,0,0,0,0,0,-4.2986,-4.2943,-4.3042,-4.3041,-4.3042,-4.3088,-4.3089,-4.309,-4.3076,-4.3074,-4.3073,-4.3071,-4.3118,-4.3121,-4.3125,-4.3174,0,0,-4.3134,-4.3136,0,0,0,0,0,0,0,0,-4.2983,-4.2989,-4.3041,-4.3042,-4.3042,-4.3075,-4.3071,-4.3118,-4.3076,-4.3063,-4.3072,-4.3071,-4.3106,-4.311,-4.3122,-4.3176,-4.3178,-4.3135,-4.3137,-4.3138,-4.3139,0,0,0,0,0,0,0,-4.298,-4.2987,-4.306,-4.3042,-4.3042,-4.3039,-4.3044,-4.308,-4.3092,-4.3064,-4.3063,-4.3069,-4.3106,-4.3119,-4.3123,-4.3179,-4.3135,-4.3138,-4.314,-4.3141,-4.3277,-4.3278,0,0,0,0,0,0,-4.2977,-4.2985,-4.3059,-4.3062,-4.3008,-4.3042,-4.3047,-4.3066,-4.3092,-4.3094,-4.307,-4.3068,-4.3114,-4.3119,-4.3125,-4.3184,-4.3138,-4.3141,-4.3143,-4.3275,-4.3277,-4.3279,0,0,0,0,0,0,-4.2974,-4.2983,-4.3057,-4.3023,-4.3032,-4.3045,-4.3066,-4.3067,-4.308,-4.3096,-4.3098,-4.3081,-4.3113,-4.312,-4.3162,-4.3185,-4.3143,-4.3146,-4.3273,-4.3276,-4.3278,-4.3302,0,0,0,0,0,0,-4.2972,-4.2983,-4.3001,-4.3024,-4.3034,-4.3093,-4.3068,-4.3069,-4.3086,-4.3084,-4.3107,-4.3109,-4.3112,-4.3157,-4.3165,-4.3189,-4.3148,-4.3271,-4.3274,-4.3277,-4.33,-4.3305,-4.331,0,0,0,0,0,-4.2968,-4.3006,-4.3002,-4.3011,-4.3058,-4.3095,-4.3101,-4.3103,-4.3088,-4.3107,-4.3117,-4.3109,-4.3182,-4.3162,-4.3171,-4.3195,-4.3269,-4.3273,-4.3277,-4.3297,-4.3304,-4.331,0,0,0,0,0,0,-4.2985,-4.3009,-4.3005,-4.3051,-4.3071,-4.3092,-4.3116,-4.3111,-4.3135,-4.3132,-4.3135,-4.314,-4.3183,-4.3194,-4.3171,-4.3245,-4.3223,-4.3229,-4.3236,-4.3243,-4.3248,-4.3243,-4.3151,0,0,0,0,0,-4.2995,-4.3023,-4.3042,-4.3081,-4.3092,-4.3102,-4.3119,-4.3119,-4.314,-4.3148,-4.3161,-4.3181,-4.3209,-4.3227,-4.3253,-4.3302,-4.3307,-4.3324,-4.333,-4.3334,-4.3338,-4.3364,-4.3372,-4.3291,-4.3291,-4.3291,0,0,-4.3014,-4.3031,-4.3048,-4.3085,-4.3101,-4.313,-4.3109,-4.3141,-4.3162,-4.3153,-4.3192,-4.3204,-4.3226,-4.3272,-4.3293,-4.3282,-4.3362,-4.3339,-4.3342,-4.3344,-4.3369,-4.3376,-4.3383,-4.3294,-4.3293,-4.3293,0,0,-4.3064,-4.308,-4.3114,-4.313,-4.3154,-4.3161,-4.3169,-4.3192,-4.3198,-4.3239,-4.3233,-4.3259,-4.3306,-4.3323,-4.3337,-4.3395,-4.3388,-4.3404,-4.3431,-4.3457,-4.3463,-4.3469,-4.3488,-4.3496,-4.3409,-4.3409,-4.3409,0,-4.3084,-4.3127,-4.3132,-4.3164,-4.318,-4.3174,-4.3209,-4.3225,-4.3256,-4.3267,-4.3256,-4.3316,-4.3331,-4.338,-4.3394,-4.3407,-4.3416,-4.34,-4.3462,-4.3468,-4.3473,-4.3492,-4.3499,-4.341,-4.341,-4.341,-4.341,0,-4.3151,-4.3181,-4.3206,-4.3237,-4.3256,-4.329,-4.3299,-4.3319,-4.3319,-4.3327,-4.3369,-4.3387,-4.3417,-4.343,-4.343,-4.3479,-4.3472,-4.3462,-4.3439,-4.3482,-4.35,-4.3507,-4.3413,-4.3412,-4.3412,-4.3411,0,0,-4.321,-4.3244,-4.3253,-4.3266,-4.3293,-4.3317,-4.3351,-4.338,-4.3396,-4.3419,-4.3446,-4.3488,-4.3479,-4.3496,-4.3498,-4.3521,-4.3565,-4.3508,-4.3509,-4.3516,-4.3619,-4.3625,-4.3633,-4.3562,-4.3563,-4.3564,-4.3617,0,-4.326,-4.3318,-4.3324,-4.3376,-4.3404,-4.34,-4.3429,-4.3449,-4.3459,-4.3484,-4.3495,-4.3523,-4.351,-4.352,-4.3543,-4.3555,-4.3585,-4.3551,-4.3586,-4.3587,-4.3578,-4.3642,-4.3648,-4.3697,-4.3624,-4.3625,-4.3626,0,-4.3326,-4.335,-4.3405,-4.3429,-4.3441,-4.3467,-4.3494,-4.3519,-4.3542,-4.3547,-4.3567,-4.3567,-4.3601,-4.3581,-4.3628,-4.3605,-4.362,-4.3629,-4.3631,-4.3632,-4.3607,-4.3643,-4.3713,-4.3719,-4.3637,-4.3636,-4.3635,0,-4.3361,-4.3408,-4.3447,-4.3459,-4.3488,-4.3506,-4.3519,-4.3541,-4.3559,-4.3584,-4.3595,-4.3624,-4.3639,-4.3662,-4.3669,-4.3654,-4.3717,-4.3696,-4.3721,-4.3721,-4.3732,-4.3731,-4.3803,-4.3746,-4.3746,-4.3746,-4.3746,0,-4.3415,-4.3448,-4.3463,-4.3486,-4.3524,-4.3531,-4.3568,-4.358,-4.36,-4.3626,-4.3626,-4.365,-4.366,-4.3686,-4.3693,-4.3731,-4.3739,-4.3743,-4.3744,-4.3742,-4.3741,-4.375,-4.3746,-4.3748,-4.3747,-4.3747,-4.3747,0,-4.3459,-4.3471,-4.3512,-4.3537,-4.3544,-4.357,-4.3591,-4.3614,-4.3625,-4.3658,-4.3666,-4.3682,-4.3713,-4.3724,-4.3762,-4.3767,-4.381,-4.3809,-4.3802,-4.3802,-4.3825,-4.3822,-4.3903,-4.3914,-4.3852,-4.3853,-4.3853,0,-4.3491,-4.3517,-4.3544,-4.3562,-4.3576,-4.3604,-4.3622,-4.3631,-4.365,-4.3679,-4.3698,-4.373,-4.3754,-4.3805,-4.3819,-4.3849,-4.3847,-4.3874,-4.3851,-4.3848,-4.3845,-4.3843,-4.3845,-4.3877,-4.3878,-4.3878,-4.3879,0,-4.3547,-4.3552,-4.3578,-4.3607,-4.3629,-4.3652,-4.3674,-4.3688,-4.3701,-4.3722,-4.3754,-4.3774,-4.3813,-4.3843,-4.3873,-4.3887,-4.3885,-4.3886,-4.3893,-4.389,-4.3884,-4.3885,-4.3811,-4.3883,-4.3883,-4.3883,-4.3882,-4.3882,-4.3585,-4.3607,-4.363,-4.366,-4.3678,-4.3699,-4.3722,-4.3735,-4.3762,-4.3794,-4.3799,-4.3833,-4.3856,-4.3896,-4.3912,-4.3939,-4.3931,-4.3942,-4.3944,-4.3946,-4.3947,-4.3882,-4.3945,-4.3944,-4.3944,-4.3944,-4.3944,0,-4.3639,-4.3654,-4.3681,-4.3713,-4.3736,-4.3733,-4.3758,-4.3778,-4.3808,-4.383,-4.3855,-4.3892,-4.3922,-4.394,-4.3971,-4.3989,-4.3989,-4.3996,-4.3994,-4.3997,-4.3952,-4.3942,-4.3996,-4.3996,-4.3996,-4.3996,-4.3996,-4.3996,-4.367,-4.3707,-4.3715,-4.3762,-4.3777,-4.381,-4.3825,-4.3844,-4.3862,-4.3903,-4.3928,-4.394,-4.3961,-4.3993,-4.4021,-4.4026,-4.4036,-4.4044,-4.4048,-4.4005,-4.4,-4.3995,-4.3985,-4.4047,-4.4047,-4.409,-4.409,-4.409]},{"header":{"parameterUnit":"m.s-1","parameterCategory":1,"la1":30.2991,"la2":30.254,"lo1":-89.0895,"lo2":-89.0444,"dy":0.0017,"dx":0.0017,"nx":28,"ny":28,"refTime":"2024-04-28T03:00:00:Z","depth":0,"parameterNumber":3,"parameterNumberName":"V-component_of_WINDS"},"data":[0,0,0,0,0,0,0,0,0,0,0,0,0,0,0,0,0,0,0,0,0,0,0,0,0,0,0,0,0,0,0,0,0,0,0,0,0,0,0,0,0,0,0,0,0,0,0,0,0,0,0,0,0,0,0,0,0,0,5.0023,5.0024,0,5.01,5.0101,5.0102,5.0139,5.0139,5.0139,5.0139,5.0214,5.0215,5.0217,0,0,0,0,0,0,0,0,0,0,0,0,0,4.9906,4.9908,5.0023,5.0024,5.0025,5.01,5.0101,5.0102,5.0139,5.0139,5.0139,5.0139,5.0213,5.0215,5.0218,0,0,0,0,0,0,0,0,0,0,0,0,0,4.9967,4.9908,5.0023,5.0053,5.0056,5.0099,5.0101,5.0102,5.0139,5.0139,5.0139,5.014,5.0212,5.0215,5.0218,5.0236,0,0,5.0227,5.0228,0,0,0,0,0,0,0,0,4.9963,4.9971,5.0047,5.0051,5.0055,5.011,5.0087,5.0147,5.0139,5.0108,5.0139,5.014,5.0179,5.0185,5.0199,5.0239,5.0242,5.0227,5.0229,5.023,5.0231,0,0,0,0,0,0,0,4.9959,4.9968,5.0053,5.0048,5.0053,5.0061,5.007,5.0098,5.0142,5.011,5.0113,5.0122,5.0181,5.0196,5.0201,5.0243,5.0227,5.023,5.0232,5.0233,5.0305,5.0306,0,0,0,0,0,0,4.995,4.9964,5.0051,5.0055,5.0008,5.0064,5.0073,5.0092,5.0142,5.015,5.0122,5.0124,5.0191,5.0197,5.0204,5.023,5.023,5.0233,5.0235,5.0305,5.0305,5.0306,0,0,0,0,0,0,4.9948,4.9958,5.0048,5.0011,5.0023,5.0066,5.0086,5.0094,5.0109,5.0151,5.0158,5.013,5.0191,5.0199,5.0229,5.0233,5.0234,5.0237,5.0305,5.0305,5.0306,5.0281,0,0,0,0,0,0,4.9944,4.9957,4.9964,5.0011,5.0025,5.0072,5.0087,5.0095,5.0114,5.0117,5.016,5.0167,5.0192,5.0224,5.0231,5.0237,5.0239,5.0305,5.0305,5.0306,5.0281,5.028,5.0279,0,0,0,0,0,4.994,4.9952,4.9964,4.9975,5.0035,5.0072,5.008,5.011,5.0115,5.0122,5.015,5.0166,5.0231,5.0227,5.0235,5.0242,5.0305,5.0305,5.0305,5.0282,5.028,5.0279,0,0,0,0,0,0,4.9903,4.9959,4.9973,5.0001,5.0032,5.0078,5.0089,5.0106,5.0135,5.0136,5.0171,5.018,5.0206,5.0227,5.0221,5.0263,5.027,5.0272,5.0249,5.0248,5.0246,5.0241,5.0242,0,0,0,0,0,4.9898,4.9924,4.9972,4.9992,5.0007,5.0045,5.0062,5.0083,5.0115,5.0128,5.0157,5.0187,5.0215,5.0232,5.026,5.0285,5.0295,5.0294,5.0292,5.0291,5.0293,5.031,5.031,5.0307,5.0307,5.0307,0,0,4.9888,4.9922,4.9936,4.9985,5.0012,5.0038,5.0056,5.0082,5.0101,5.0131,5.0162,5.0185,5.022,5.0248,5.0262,5.0266,5.0296,5.0292,5.0291,5.0293,5.031,5.031,5.0311,5.0307,5.0307,5.0307,0,0,4.9884,4.9912,4.9933,4.996,5.0001,5.0027,5.0032,5.0077,5.0094,5.0125,5.0149,5.0172,5.0219,5.0244,5.0263,5.0272,5.0288,5.028,5.0274,5.029,5.029,5.029,5.0295,5.0296,5.0281,5.0281,5.0281,0,4.9865,4.9907,4.9941,4.9967,4.9989,5.002,5.0042,5.0066,5.0112,5.0126,5.0131,5.0192,5.0218,5.0253,5.0256,5.027,5.0277,5.0275,5.0288,5.0288,5.0289,5.0294,5.0295,5.028,5.028,5.028,5.028,0,4.9884,4.9912,4.9924,4.9972,4.9995,5.0018,5.0055,5.0074,5.0094,5.0119,5.0152,5.0185,5.0221,5.0231,5.0248,5.0269,5.0271,5.0281,5.0288,5.0288,5.0293,5.0295,5.0278,5.0279,5.0279,5.0279,0,0,4.9856,4.9925,4.9928,4.9952,5.0,5.0022,5.0048,5.0086,5.0102,5.0133,5.0156,5.0197,5.0207,5.0229,5.025,5.0264,5.0272,5.0273,5.0274,5.0273,5.0299,5.0291,5.0293,5.0283,5.0283,5.0284,5.0296,0,4.9859,4.9908,4.9941,4.9977,5.0004,5.0036,5.0059,5.0091,5.0116,5.0142,5.0169,5.0198,5.0209,5.0223,5.0239,5.0267,5.0277,5.0267,5.0304,5.0305,5.0295,5.0295,5.0287,5.0297,5.0298,5.0298,5.0299,0,4.9868,4.9903,4.9942,4.9991,5.0003,5.0023,5.0062,5.0087,5.0124,5.0142,5.0168,5.019,5.0219,5.0224,5.0265,5.0257,5.0274,5.0291,5.0292,5.0297,5.0302,5.0301,5.03,5.0302,5.0302,5.0302,5.0301,0,4.9846,4.9901,4.9933,4.9952,5.0009,5.0022,5.0046,5.0084,5.0106,5.0139,5.0153,5.0189,5.0208,5.0235,5.0267,5.0267,5.0304,5.0312,5.032,5.0319,5.0326,5.0325,5.0329,5.0336,5.0336,5.0336,5.0336,0,4.9846,4.9869,4.9924,4.9944,4.9971,5.0009,5.0034,5.0061,5.0095,5.012,5.0149,5.0171,5.0212,5.0239,5.0264,5.0295,5.0303,5.0318,5.0324,5.0316,5.0314,5.0328,5.0328,5.0336,5.0336,5.0336,5.0336,0,4.9825,4.9863,4.99,4.9952,4.9966,4.9984,5.0028,5.0048,5.0076,5.0108,5.0117,5.0161,5.0195,5.023,5.0275,5.0292,5.0322,5.0331,5.031,5.0314,5.0321,5.032,5.0334,5.0339,5.0341,5.0341,5.0341,0,4.9823,4.9843,4.9898,4.9918,4.9942,4.9973,4.9997,5.0035,5.0057,5.0104,5.0118,5.0156,5.0187,5.0241,5.0276,5.0311,5.0321,5.0324,5.0326,5.0318,5.0323,5.0322,5.0324,5.0322,5.0322,5.0322,5.0322,0,4.9816,4.9835,4.9868,4.9908,4.9936,4.9969,5.0002,5.0017,5.0062,5.0086,5.0123,5.0148,5.0196,5.0233,5.0274,5.0298,5.0318,5.0321,5.0325,5.0317,5.0305,5.0313,5.0308,5.032,5.0321,5.0321,5.0321,5.0321,4.9805,4.9825,4.9868,4.9905,4.9935,4.9967,4.9989,5.0022,5.0054,5.0098,5.0118,5.0155,5.0195,5.0252,5.0276,5.0305,5.0311,5.0316,5.0317,5.0318,5.0317,5.03,5.0313,5.0313,5.0313,5.0313,5.0313,0,4.9801,4.9831,4.9865,4.9913,4.9942,4.9961,5.0,5.0023,5.0056,5.0092,5.0124,5.0167,5.0204,5.0243,5.0282,5.0298,5.0309,5.0307,5.0307,5.0312,5.0309,5.0303,5.0299,5.0299,5.0299,5.0299,5.0299,5.0299,4.9802,4.9837,4.9861,4.9912,4.9942,4.998,5.0001,5.0031,5.0061,5.0109,5.014,5.0166,5.0204,5.0247,5.0281,5.0292,5.0305,5.0302,5.0315,5.0311,5.0312,5.0313,5.0307,5.0304,5.0304,5.0316,5.0316,5.0316]}]]